EW8714 Weather Reports


Display with metric or nautical units.
time (UTC)temp
F
wind
direction
speed
MPH
gust
MPH
rain 1hr
in
rain 24hr
in
rain mn
in
humidity
%
barometer
mb
20260901035003 63 293 3.0 8.0 0.01 0.04 0.04 82 1021.6
20260901034507 63 283 3.0 8.0 0.01 0.04 0.04 81 1021.8
20260901034009 63 255 4.0 8.0 0.01 0.04 0.04 81 1022.0
20260901033507 64 287 3.0 9.0 0.01 0.04 0.04 80 1021.5
20260901033009 64 295 5.0 12.0 0.01 0.04 0.04 79 1021.7
20260901032507 64 249 8.0 12.0 0.01 0.04 0.04 79 1022.0
20260901032007 64 251 8.0 13.0 0.01 0.04 0.04 78 1022.2
20260901031518 64 254 8.0 15.0 0.01 0.04 0.04 77 1022.3
20260901031012 65 241 9.0 15.0 0.00 0.03 0.03 74 1022.4
20260901030509 66 246 10.0 15.0 0.00 0.03 0.03 71 1022.3
20260901030007 67 234 8.0 18.0 0.00 0.03 0.03 68 1022.2
20260901025507 68 244 12.0 18.0 0.00 0.03 0.03 65 1021.9
20260901025007 69 235 7.0 20.0 0.00 0.03 0.03 64 1021.6
20260901024508 70 254 11.0 20.0 0.00 0.03 0.03 61 1021.6
20260901024007 68 240 8.0 16.0 0.00 0.03 0.03 66 1021.3
20260901023507 68 240 4.0 8.0 0.01 0.03 0.03 68 1021.3
20260901023020 68 1 0.0 1.0 0.01 0.03 0.03 64 1020.6
20260901022512 68 1 0.0 3.0 0.01 0.03 0.03 65 1020.3
20260901022008 68 1 1.0 4.0 0.01 0.03 0.03 64 1020.2
20260901021514 68 1 1.0 4.0 0.01 0.03 0.03 66 1020.1
20260901021010 67 360 1.0 6.0 0.01 0.03 0.03 67 1020.1
20260901020507 67 359 1.0 6.0 0.02 0.03 0.03 69 1019.9
20260901020026 67 354 1.0 4.0 0.03 0.03 0.03 71 1019.8
20260901015512 67 350 1.0 6.0 0.03 0.03 0.03 71 1019.7
20260901015011 67 349 4.0 7.0 0.03 0.03 0.03 70 1019.7
20260901014515 67 337 4.0 7.0 0.03 0.03 0.03 71 1019.8
20260901014009 67 360 3.0 6.0 0.02 0.02 0.02 71 1019.8
20260901013516 67 268 0.0 6.0 0.02 0.02 0.02 72 1019.8
20260901013024 67 268 1.0 6.0 0.02 0.02 0.02 72 1019.9
20260901012510 67 269 3.0 9.0 0.02 0.02 0.02 72 1020.0
20260901012009 67 251 4.0 15.0 0.02 0.02 0.02 70 1020.1
20260901011516 68 278 6.0 19.0 0.02 0.02 0.02 67 1020.1
20260901011014 69 284 12.0 19.0 0.02 0.02 0.02 62 1019.9
20260901010514 72 296 12.0 21.0 0.00 0.00 0.00 54 1019.4
20260901010020 78 266 12.0 21.0 0.00 0.00 0.00 41 1019.6
20260901005515 81 287 2.0 0.0 0.00 0.00 0.00 30 1019.5
20260901005014 81 96 0.0 5.0 0.00 0.00 0.00 30 1019.0
20260901004513 81 97 2.0 5.0 0.00 0.00 0.00 31 1018.7
20260901004012 81 97 1.0 4.0 0.00 0.00 0.00 31 1018.7
20260901003512 81 96 2.0 7.0 0.00 0.00 0.00 30 1018.7
20260901003016 82 96 3.0 7.0 0.00 0.00 0.00 30 1018.7
20260901002516 82 98 3.0 7.0 0.00 0.00 0.00 29 1018.7
20260901002016 82 96 4.0 8.0 0.00 0.00 0.00 29 1018.7
20260901001519 82 94 4.0 7.0 0.00 0.00 0.00 29 1018.6
20260901001014 82 99 4.0 7.0 0.00 0.00 0.00 29 1018.6
20260901000514 82 98 4.0 8.0 0.00 0.00 0.00 29 1018.6
20260901000016 82 94 4.0 8.0 0.00 0.00 0.00 28 1018.7
20260831235518 83 98 4.0 10.0 0.00 0.00 0.00 30 1018.7
20260831235016 83 94 4.0 11.0 0.00 0.00 0.00 29 1018.7
20260831234518 83 93 5.0 11.0 0.00 0.00 0.00 28 1018.7
20260831234017 83 63 3.0 10.0 0.00 0.00 0.00 28 1018.7
20260831233519 84 113 4.0 13.0 0.00 0.00 0.00 27 1018.6
20260831233018 84 98 5.0 13.0 0.00 0.00 0.00 29 1018.6
20260831232518 85 124 5.0 11.0 0.00 0.00 0.00 28 1018.7
20260831232016 84 105 6.0 11.0 0.00 0.00 0.00 28 1018.6
20260831231521 84 102 7.0 13.0 0.00 0.00 0.00 27 1018.7
20260831231023 84 135 7.0 13.0 0.00 0.00 0.00 27 1018.7
20260831230520 84 105 4.0 8.0 0.00 0.00 0.00 26 1018.6
20260831230024 85 92 3.0 8.0 0.00 0.00 0.00 28 1018.7
20260831225521 86 106 4.0 8.0 0.00 0.00 0.00 26 1018.8
20260831225022 86 170 3.0 8.0 0.00 0.00 0.00 26 1018.9
20260831224524 85 150 3.0 6.0 0.00 0.00 0.00 27 1019.0
20260831224022 85 101 1.0 7.0 0.00 0.00 0.00 26 1018.9
20260831223521 85 96 4.0 7.0 0.00 0.00 0.00 28 1019.0
20260831223021 84 89 4.0 8.0 0.00 0.00 0.00 29 1019.1
20260831222521 84 74 4.0 8.0 0.00 0.00 0.00 28 1019.0
20260831222023 83 52 3.0 7.0 0.00 0.00 0.00 28 1019.1
20260831221518 84 94 2.0 7.0 0.00 0.00 0.00 30 1019.2
20260831221018 84 75 2.0 10.0 0.00 0.00 0.00 29 1019.2
20260831220518 85 63 3.0 10.0 0.00 0.00 0.00 28 1019.2
20260831220022 85 89 2.0 6.0 0.00 0.00 0.00 29 1019.3
20260831215521 85 60 2.0 8.0 0.00 0.00 0.00 29 1019.3
20260831215020 84 42 5.0 8.0 0.00 0.00 0.00 28 1019.4
20260831214522 84 98 1.0 5.0 0.00 0.00 0.00 31 1019.4
20260831214021 83 94 2.0 7.0 0.00 0.00 0.00 29 1019.4
20260831213528 83 95 3.0 8.0 0.00 0.00 0.00 31 1019.6
20260831213023 82 96 4.0 8.0 0.00 0.00 0.00 33 1019.6
20260831212523 82 103 3.0 9.0 0.00 0.00 0.00 33 1019.7
20260831212021 83 60 4.0 9.0 0.00 0.00 0.00 31 1019.7
20260831211524 83 44 4.0 9.0 0.00 0.00 0.00 31 1019.8
20260831211023 83 55 3.0 9.0 0.00 0.00 0.00 31 1019.9
20260831210523 82 50 3.0 7.0 0.00 0.00 0.00 31 1019.9
20260831210023 82 32 3.0 7.0 0.00 0.00 0.00 31 1020.0
20260831205522 82 63 2.0 4.0 0.00 0.01 0.00 32 1020.1
20260831205025 82 63 1.0 6.0 0.00 0.01 0.00 32 1020.2
20260831204506 82 94 1.0 5.0 0.00 0.01 0.00 36 1020.3
20260831204005 81 97 2.0 5.0 0.00 0.01 0.00 34 1020.4
20260831203504 81 105 2.0 5.0 0.00 0.01 0.00 34 1020.5
20260831203006 81 106 1.0 5.0 0.00 0.01 0.00 33 1020.6
20260831202506 81 106 1.0 6.0 0.00 0.01 0.00 35 1020.6
20260831202004 81 108 2.0 6.0 0.00 0.01 0.00 33 1020.6
20260831201505 81 92 2.0 7.0 0.00 0.01 0.00 35 1020.8
20260831201004 81 91 3.0 7.0 0.00 0.01 0.00 34 1020.9
20260831200504 81 87 2.0 5.0 0.00 0.01 0.00 33 1020.8
20260831200008 81 110 2.0 6.0 0.00 0.01 0.00 36 1020.8
20260831195510 81 112 3.0 6.0 0.00 0.01 0.00 33 1020.9
20260831195007 82 121 2.0 4.0 0.00 0.01 0.00 31 1020.9
20260831194507 81 121 2.0 4.0 0.00 0.01 0.00 32 1021.0
20260831194008 81 122 2.0 4.0 0.00 0.01 0.00 33 1021.1
20260831193506 81 120 1.0 4.0 0.00 0.01 0.00 34 1021.1
20260831193012 81 119 2.0 4.0 0.00 0.01 0.00 32 1021.2
20260831192513 80 115 0.0 2.0 0.00 0.01 0.00 34 1021.3
20260831192009 80 115 1.0 3.0 0.00 0.01 0.00 33 1021.4
20260831191519 80 124 0.0 3.0 0.00 0.01 0.00 35 1021.5
20260831191008 79 124 1.0 5.0 0.00 0.01 0.00 35 1021.5
20260831190507 79 124 2.0 5.0 0.00 0.01 0.00 34 1021.6
20260831190005 79 125 1.0 3.0 0.00 0.01 0.00 35 1021.7
20260831185508 79 126 1.0 4.0 0.00 0.01 0.00 34 1021.7
20260831185006 79 125 2.0 5.0 0.00 0.01 0.00 36 1021.8
20260831184512 79 126 1.0 5.0 0.00 0.01 0.00 34 1021.7
20260831184013 79 150 1.0 5.0 0.00 0.01 0.00 35 1021.8
20260831183512 79 204 1.0 6.0 0.00 0.01 0.00 34 1021.8
20260831183010 79 204 3.0 6.0 0.00 0.01 0.00 33 1021.8
20260831182513 79 203 1.0 3.0 0.00 0.01 0.00 34 1021.8
20260831182009 79 205 1.0 4.0 0.00 0.01 0.00 34 1021.9
20260831181512 78 205 0.0 4.0 0.00 0.01 0.00 34 1022.0
20260831181012 78 205 0.0 5.0 0.00 0.01 0.00 35 1022.0
20260831180512 78 206 0.0 5.0 0.00 0.01 0.00 34 1022.0
20260831180011 78 186 3.0 5.0 0.00 0.01 0.00 35 1022.1
20260831175511 78 90 1.0 3.0 0.00 0.01 0.00 35 1022.1
20260831175011 77 88 1.0 4.0 0.00 0.01 0.00 37 1022.1
20260831174507 77 87 1.0 4.0 0.00 0.01 0.00 37 1022.1
20260831174007 77 84 1.0 5.0 0.00 0.01 0.00 36 1022.2
20260831173505 77 84 1.0 5.0 0.00 0.01 0.00 38 1022.2
20260831173015 77 84 1.0 4.0 0.00 0.01 0.00 37 1022.2
20260831172510 77 84 2.0 5.0 0.00 0.01 0.00 39 1022.2
20260831172014 76 49 3.0 5.0 0.00 0.01 0.00 40 1022.2
20260831171514 76 99 3.0 6.0 0.00 0.01 0.00 42 1022.2
20260831171011 76 100 4.0 6.0 0.00 0.01 0.00 40 1022.3
20260831170509 76 92 2.0 5.0 0.00 0.01 0.00 38 1022.4
20260831170016 77 84 4.0 5.0 0.00 0.01 0.00 42 1022.3
20260831165511 77 65 1.0 5.0 0.00 0.01 0.00 42 1022.4
20260831165008 77 62 1.0 4.0 0.00 0.01 0.00 43 1022.3
20260831164513 77 65 2.0 5.0 0.00 0.01 0.00 42 1022.2
20260831164013 77 66 2.0 5.0 0.00 0.01 0.00 44 1022.2
20260831163511 78 1 1.0 3.0 0.00 0.01 0.00 39 1022.2
20260831163010 78 1 1.0 3.0 0.00 0.01 0.00 41 1022.2
20260831162508 78 1 1.0 3.0 0.00 0.01 0.00 41 1022.0
20260831162008 77 1 0.0 2.0 0.00 0.01 0.00 41 1022.0
20260831161509 77 1 1.0 3.0 0.00 0.01 0.00 38 1022.0
20260831161009 77 1 1.0 3.0 0.00 0.01 0.00 39 1022.0
20260831160509 77 1 1.0 5.0 0.00 0.01 0.00 39 1022.0
20260831160009 77 1 0.0 5.0 0.00 0.01 0.00 39 1022.0
20260831155511 78 281 1.0 4.0 0.00 0.01 0.00 39 1021.9
20260831155009 78 278 1.0 4.0 0.00 0.01 0.00 40 1021.8
20260831154511 78 276 1.0 3.0 0.00 0.01 0.00 39 1021.8
20260831154012 78 270 0.0 3.0 0.00 0.01 0.00 38 1021.9
20260831153515 78 269 1.0 3.0 0.00 0.01 0.00 40 1021.9
20260831153014 77 268 0.0 3.0 0.00 0.01 0.00 41 1021.8
20260831152512 76 268 1.0 5.0 0.00 0.01 0.00 43 1021.8
20260831152011 75 267 0.0 5.0 0.00 0.01 0.00 46 1021.8
20260831151511 74 266 2.0 5.0 0.00 0.01 0.00 46 1021.8
20260831151010 73 263 1.0 5.0 0.00 0.01 0.00 48 1021.8
20260831150513 73 260 3.0 5.0 0.00 0.01 0.00 47 1021.8
20260831150015 73 225 2.0 5.0 0.00 0.01 0.00 50 1021.9
20260831145512 72 220 2.0 5.0 0.00 0.01 0.00 51 1021.9
20260831145011 71 219 3.0 5.0 0.00 0.01 0.00 53 1021.9
20260831144511 70 141 2.0 4.0 0.00 0.01 0.00 55 1021.9
20260831144011 69 122 2.0 4.0 0.00 0.01 0.00 57 1021.8
20260831143511 68 105 1.0 3.0 0.00 0.01 0.00 59 1021.8
20260831143010 68 105 1.0 3.0 0.00 0.01 0.00 59 1021.7
20260831142509 68 104 0.0 2.0 0.00 0.01 0.00 59 1021.6
20260831142009 68 150 0.0 3.0 0.00 0.01 0.00 60 1021.6
20260831141514 67 161 0.0 4.0 0.00 0.01 0.00 60 1021.5
20260831141013 67 161 1.0 4.0 0.00 0.01 0.00 62 1021.6
20260831140514 67 151 2.0 4.0 0.00 0.01 0.00 63 1021.6
20260831140015 66 150 1.0 3.0 0.00 0.01 0.00 63 1021.6
20260831135513 66 150 1.0 3.0 0.00 0.01 0.00 63 1021.5
20260831135013 66 150 1.0 3.0 0.00 0.01 0.00 63 1021.4
20260831134518 66 150 1.0 2.0 0.00 0.01 0.00 62 1021.5
20260831134014 66 150 0.0 3.0 0.00 0.01 0.00 62 1021.4
20260831133513 66 150 1.0 3.0 0.00 0.01 0.00 63 1021.2
20260831133027 66 150 1.0 2.0 0.00 0.01 0.00 62 1021.2
20260831132519 66 150 0.0 3.0 0.00 0.01 0.00 62 1021.0
20260831132018 65 150 1.0 3.0 0.00 0.01 0.00 62 1021.0
20260831131517 65 150 0.0 5.0 0.00 0.01 0.00 63 1020.9
20260831131015 65 150 2.0 5.0 0.00 0.01 0.00 63 1020.8
20260831130514 64 115 2.0 4.0 0.00 0.01 0.00 63 1020.7
20260831130019 64 114 1.0 3.0 0.00 0.01 0.00 64 1020.7
20260831125523 64 113 0.0 2.0 0.00 0.01 0.00 64 1020.7
20260831125021 64 113 0.0 4.0 0.00 0.01 0.00 64 1020.6
20260831124536 63 113 1.0 4.0 0.00 0.01 0.00 65 1020.6
20260831124020 63 112 1.0 4.0 0.00 0.01 0.00 67 1020.4
20260831123516 62 111 3.0 4.0 0.00 0.01 0.00 69 1020.4
20260831123017 61 98 1.0 4.0 0.00 0.01 0.00 71 1020.4
20260831122518 61 95 0.0 3.0 0.00 0.01 0.00 71 1020.4
20260831122018 61 93 0.0 3.0 0.00 0.01 0.00 71 1020.3
20260831121524 61 91 1.0 2.0 0.00 0.01 0.00 72 1020.2
20260831121024 61 91 1.0 3.0 0.00 0.01 0.00 70 1020.2
20260831120526 61 91 1.0 3.0 0.00 0.01 0.00 69 1020.2
20260831120021 62 91 0.0 2.0 0.00 0.01 0.00 67 1020.1
20260831115520 62 91 0.0 1.0 0.00 0.01 0.00 66 1020.2
20260831115023 63 91 0.0 1.0 0.00 0.01 0.00 66 1020.2
20260831114535 63 91 0.0 5.0 0.00 0.01 0.00 65 1020.2
20260831114022 63 91 2.0 5.0 0.00 0.01 0.00 65 1020.3
20260831113521 64 206 0.0 2.0 0.00 0.01 0.00 64 1020.1
20260831113022 64 206 0.0 2.0 0.00 0.01 0.00 64 1019.9
20260831112522 64 206 0.0 2.0 0.00 0.01 0.00 63 1019.9
20260831112021 64 206 0.0 2.0 0.00 0.01 0.00 64 1019.8
20260831111521 64 206 0.0 4.0 0.00 0.01 0.00 64 1019.9
20260831111021 64 206 0.0 7.0 0.00 0.01 0.00 62 1019.7
20260831110521 64 206 3.0 7.0 0.00 0.01 0.00 62 1019.6
20260831110022 64 205 4.0 8.0 0.00 0.01 0.00 62 1019.6
20260831105522 64 207 4.0 8.0 0.00 0.01 0.00 62 1019.6
20260831105024 65 218 4.0 8.0 0.00 0.01 0.00 61 1019.5
20260831104537 65 214 5.0 8.0 0.00 0.01 0.00 61 1019.4
20260831104027 65 212 4.0 8.0 0.00 0.01 0.00 61 1019.4
20260831103526 65 209 4.0 7.0 0.00 0.01 0.00 61 1019.5
20260831103022 66 210 3.0 8.0 0.00 0.01 0.00 61 1019.6
20260831102524 65 210 5.0 8.0 0.00 0.01 0.00 61 1019.6
20260831102021 65 201 4.0 8.0 0.00 0.01 0.00 62 1019.6
20260831101521 65 212 5.0 8.0 0.00 0.01 0.00 63 1019.6
20260831101022 64 214 5.0 8.0 0.00 0.01 0.00 64 1019.6
20260831100521 64 241 1.0 4.0 0.00 0.01 0.00 65 1019.5
20260831100021 64 241 2.0 5.0 0.00 0.01 0.00 66 1019.5
20260831095521 64 242 3.0 5.0 0.00 0.01 0.00 67 1019.5
20260831095021 63 266 2.0 4.0 0.00 0.01 0.00 68 1019.4
20260831094526 63 267 1.0 3.0 0.00 0.01 0.00 69 1019.4
20260831094024 64 267 1.0 3.0 0.00 0.01 0.00 67 1019.4
20260831093528 64 267 2.0 3.0 0.00 0.01 0.00 67 1019.4
20260831093034 64 267 0.0 3.0 0.00 0.01 0.00 67 1019.4
20260831092525 64 267 1.0 4.0 0.00 0.01 0.00 67 1019.3
20260831092027 64 264 1.0 4.0 0.00 0.01 0.00 67 1019.3
20260831091503 64 265 0.0 2.0 0.00 0.01 0.00 66 1019.2
20260831091005 64 265 0.0 2.0 0.00 0.01 0.00 66 1019.2
20260831090503 65 265 0.0 2.0 0.00 0.01 0.00 65 1019.2
20260831090008 65 265 0.0 2.0 0.00 0.01 0.00 64 1019.2
20260831085507 65 265 0.0 1.0 0.00 0.01 0.00 63 1019.0
20260831085005 65 265 0.0 3.0 0.00 0.01 0.00 63 1019.1
20260831084510 65 265 0.0 3.0 0.00 0.01 0.00 63 1019.3
20260831084006 65 265 0.0 4.0 0.00 0.01 0.00 62 1019.4
20260831083504 65 267 0.0 4.0 0.00 0.01 0.00 61 1019.3
20260831083015 65 267 1.0 3.0 0.00 0.01 0.00 61 1019.4
20260831082509 66 267 2.0 3.0 0.00 0.01 0.00 60 1019.4
20260831082009 66 267 0.0 4.0 0.00 0.01 0.00 60 1019.3
20260831081508 65 267 1.0 4.0 0.00 0.01 0.00 60 1019.3
20260831081010 65 268 1.0 3.0 0.00 0.01 0.00 59 1019.4
20260831080507 64 268 0.0 2.0 0.00 0.01 0.00 58 1019.4
20260831080012 64 268 0.0 2.0 0.00 0.01 0.00 57 1019.5
20260831075508 65 268 0.0 3.0 0.00 0.01 0.00 57 1019.6
20260831075007 65 268 1.0 3.0 0.00 0.01 0.00 57 1019.6
20260831074517 65 268 0.0 1.0 0.00 0.01 0.00 57 1019.7
20260831074015 65 268 0.0 3.0 0.00 0.01 0.00 56 1019.8
20260831073512 66 268 0.0 3.0 0.00 0.01 0.00 54 1019.9
20260831073011 66 268 0.0 3.0 0.00 0.01 0.00 54 1019.9
20260831072511 66 268 0.0 4.0 0.00 0.01 0.00 53 1019.9
20260831072014 66 268 2.0 4.0 0.00 0.01 0.00 53 1019.9
20260831071525 66 269 1.0 3.0 0.00 0.01 0.00 52 1020.0
20260831071015 66 269 2.0 3.0 0.00 0.01 0.00 52 1020.1
20260831070515 65 269 1.0 3.0 0.00 0.01 0.00 53 1020.1
20260831070025 65 269 0.0 1.0 0.00 0.01 0.00 54 1020.0
20260831065518 65 269 0.0 2.0 0.00 0.01 0.00 56 1020.1
20260831065017 65 269 0.0 3.0 0.00 0.01 0.00 55 1020.2
20260831064515 65 269 1.0 3.0 0.00 0.01 0.00 55 1020.0
20260831064015 66 269 1.0 3.0 0.00 0.01 0.00 54 1020.0
20260831063512 67 269 1.0 3.0 0.00 0.01 0.00 54 1020.0
20260831063015 68 269 2.0 3.0 0.00 0.01 0.00 49 1020.2
20260831062514 69 269 0.0 2.0 0.00 0.01 0.00 46 1020.3
20260831062014 69 269 0.0 3.0 0.00 0.01 0.00 45 1020.5
20260831061514 70 269 0.0 3.0 0.00 0.01 0.00 46 1020.5
20260831061013 70 269 1.0 4.0 0.00 0.01 0.00 46 1020.5
20260831060511 71 269 0.0 7.0 0.00 0.01 0.00 44 1020.6
20260831060011 71 267 2.0 8.0 0.00 0.01 0.00 42 1020.4
20260831055510 71 264 4.0 9.0 0.00 0.01 0.01 42 1020.5
20260831055010 71 253 5.0 9.0 0.00 0.01 0.01 42 1020.5
20260831054515 72 260 5.0 11.0 0.00 0.01 0.01 42 1020.4
20260831054018 72 257 6.0 11.0 0.00 0.01 0.01 43 1020.4
20260831053517 73 264 6.0 15.0 0.00 0.01 0.01 42 1020.5
20260831053014 73 281 8.0 18.0 0.00 0.01 0.01 41 1020.6
20260831052514 73 256 10.0 18.0 0.00 0.01 0.01 41 1020.7
20260831052014 73 243 11.0 18.0 0.00 0.01 0.01 42 1020.8
20260831051522 72 250 7.0 16.0 0.00 0.01 0.01 45 1020.8
20260831051017 71 252 7.0 13.0 0.00 0.01 0.01 52 1020.9
20260831050517 70 248 7.0 13.0 0.00 0.01 0.01 58 1021.0
20260831050019 69 247 7.0 12.0 0.00 0.01 0.01 62 1021.0
20260831045517 69 250 7.0 12.0 0.00 0.01 0.01 65 1021.0
20260831045020 68 263 5.0 8.0 0.00 0.01 0.01 65 1021.0
20260831044519 68 251 3.0 5.0 0.00 0.01 0.01 65 1020.9
20260831044017 68 226 3.0 5.0 0.00 0.01 0.01 66 1020.8
20260831043519 68 212 0.0 4.0 0.00 0.01 0.01 66 1020.8
20260831043021 68 212 0.0 4.0 0.00 0.01 0.01 65 1020.7
20260831042519 68 207 0.0 5.0 0.00 0.01 0.01 65 1020.5
20260831042019 68 207 0.0 6.0 0.00 0.01 0.01 65 1020.4
20260831041520 68 207 2.0 7.0 0.00 0.01 0.01 65 1020.4
20260831041020 68 211 3.0 6.0 0.00 0.01 0.01 65 1020.4
20260831040519 68 218 2.0 5.0 0.00 0.01 0.01 65 1020.3
20260831040026 68 219 3.0 5.0 0.00 0.01 0.01 65 1020.2
20260831035523 68 222 2.0 5.0 0.00 0.01 0.01 65 1020.2